Regional Weather Roundup
Issued by NWS Boston, MA

Home | Current Version | Previous Version | Text Only | Print | Product List | Glossary On
Versions: 1 2 3 4 5 6 7 8 9 10 11 12 13 14 15 16 17 18 19 20 21 22 23 24 25 26 27 28
000
ASUS41 KBOX 311210
RWRBOX

REGIONAL WEATHER ROUNDUP
NATIONAL WEATHER SERVICE TAUNTON MA
800 AM EDT FRI OCT 31 2014

NOTE:  "FAIR" INDICATES FEW OR NO CLOUDS BELOW 12,000 FEET WITH NO
SIGNIFICANT WEATHER AND/OR OBSTRUCTIONS TO VISIBILITY.  THE FOLLOWING
OBSERVATION LOCATIONS DO NOT REPORT PRESENT WEATHER...PROVINCETOWN...
SMITHFIELD...BLOCK ISLAND...KEENE...AND OXFORD.

MAZALL-311300-
EASTERN MASSACHUSETTS

CITY           SKY/WX    TMP DP  RH WIND       PRES   REMARKS
BOSTON         MOCLDY    45  36  70 N7        30.04R
6HR MIN TEMP:  45; 6HR MAX TEMP:  47;

BEVERLY        MOCLDY    41  35  79 N3        30.04R
LAWRENCE       CLOUDY    42  35  76 NE3       30.06R
BEDFORD        MOCLDY    37  35  92 CALM      30.03R
BLUE HILL        N/A     44  37  76 NE9       30.01R
NORWOOD        MOCLDY    42  40  92 CALM      30.02S
MARSHFIELD     NOT AVBL
PLYMOUTH       PTCLDY    47  41  80 NE6       30.02R
TAUNTON        FOG       39  37  92 CALM      30.02S VSB 1
NEW BEDFORD    MOCLDY    43  41  93 VRB3      30.01R
$$

MAZALL-311300-
CAPE COD AND THE ISLANDS

CITY           SKY/WX    TMP DP  RH WIND       PRES   REMARKS
FALMOUTH       CLOUDY    50  45  81 NE9       30.01R
HYANNIS        CLOUDY    51  44  77 E5        30.00R
CHATHAM        CLOUDY    51  44  77 NE8       30.02R
PROVINCETOWN   CLOUDY    48  -4  11 NE10      30.03R
NANTUCKET      MOCLDY    50  44  80 NE8       30.00R
MARTHAS VNYRD  CLOUDY    51  46  83 NE12      30.00R
$$

MAZALL-311300-
CENTRAL AND WESTERN MASSACHUSETTS

CITY           SKY/WX    TMP DP  RH WIND       PRES   REMARKS
WORCESTER      CLOUDY    40  32  73 N8        30.02R
6HR MIN TEMP:  40; 6HR MAX TEMP:  43;

FITCHBURG      CLOUDY    44  34  67 W5        30.05R
ORANGE         CLOUDY    36  36 100 CALM      30.03S
SPRINGFIELD    CLOUDY    33  31  96 CALM      30.03R
WESTFIELD      CLOUDY    35  33  92 CALM      30.04R
NORTH ADAMS    CLOUDY    28  27  96 CALM      30.05R
PITTSFIELD     FOG       28  28 100 CALM      30.01R VSB<1/4
$$

RIZALL-311300-
RHODE ISLAND

CITY           SKY/WX    TMP DP  RH WIND       PRES   REMARKS
PROVIDENCE     PTCLDY    44  38  79 N3        30.03R
6HR MIN TEMP:  41; 6HR MAX TEMP:  45;

NEWPORT        CLEAR     48  40  73 NE10      30.01R
BLOCK ISLAND   MOCLDY    52  43  71 NE10G17   29.99S
SMITHFIELD     CLEAR     39  30  70 NE6       30.01S
WESTERLY       CLEAR     39  36  89 N5        30.01R
$$

CTZALL-311300-
CONNECTICUT

CITY           SKY/WX    TMP DP  RH WIND       PRES   REMARKS
BRADLEY INTL   PTCLDY    34  30  85 CALM      30.03S
6HR MIN TEMP:  31; 6HR MAX TEMP:  37;

HARTFORD       CLEAR     33  32  96 SE6       30.05R WCI  28
BRIDGEPORT     CLOUDY    47  35  63 NE7       30.02R
DANBURY        CLOUDY    40  32  73 CALM      30.03R
GROTON         CLEAR     39  36  89 N8        30.01R
NEW HAVEN      PTCLDY    43  33  68 N10       30.02R
CHESTER        NOT AVBL
MERIDEN        CLEAR     35  32  88 CALM      30.04R
WILLIMANTIC    FOG       33  32  96 CALM      30.04R VSB<1/4
OXFORD         MOCLDY    37  27  65 NE5       30.03R
$$

MEZ002-015-021-024-NHZ003-005-008-011-012-014-VTZ005-008-311300-
NORTHERN NEW ENGLAND

CITY           SKY/WX    TMP DP  RH WIND       PRES   REMARKS
PORTLAND ME    CLOUDY    40  35  83 CALM      30.06R
6HR MIN TEMP:  34; 6HR MAX TEMP:  40;

BANGOR ME      MOCLDY    34  31  88 CALM      30.05R
CONCORD NH     CLOUDY    39  37  92 CALM      30.05R
MANCHESTER NH  CLOUDY    43  35  73 NW3       30.04R
NASHUA NH      CLOUDY    42  38  86 CALM      30.05R
PORTSMOUTH NH  MOCLDY    42  35  75 N5        30.05R
JAFFREY NH     CLOUDY    37  35  92 CALM      30.03R
KEENE NH       CLOUDY    37  30  75 CALM      30.04S
BURLINGTON VT  MOCLDY    38  35  89 CALM      30.06R
MT. WASHINGTON FOG       18  18 100 NW17        N/A  VSB 1/16WCI   2
$$

NYZ052-076-311300-
EASTERN NEW YORK

CITY           SKY/WX    TMP DP  RH WIND       PRES   REMARKS
ALBANY         FOG       32  30  92 CALM      30.06R VSB 1/8
6HR MIN TEMP:  31; 6HR MAX TEMP:  35;

NEW YORK CITY  MOCLDY    46  33  60 N7        30.02S
6HR MIN TEMP:  45; 6HR MAX TEMP:  48;

$$

ANZALL-311300-
MARINE OBSERVATIONS

STATION/POSITION TIME  TEMP    WIND        PRES    VSBY  WAVE
                       AIR SEA DIR/SP/G                  HT/PER
                 (UTC) (F)     (DEG/KT/KT) (MB)    (MI)  (FT/S)
BOSTON BUOY      1150   50 54   50/ 12/ 14 1016.9R         3/ 5
BUZZARDS BAY     1100           40/ 17/ 19 1016.0R
NANTUCKET SOUND  1150   53 57   50/ 14/ 16 1015.5R         1/ 3
MASS BAY-STELLWA 1104   49 54   40/ 12/ 14   N/A    1 7/8  3/ 5
ISLE OF SHOALS   1200   48      50/ 12/ 14 1016.9R
S OF BLOCK IS    1108      60                N/A           2/ 6
$$

......................KEY.........................
  SKY/WX - SKY CONDITION/PRESENT WEATHER
  TMP    - TEMPERATURE IN FAHRENHEIT
  DWPT   - DEWPOINT IN FAHRENHEIT
  RH     - RELATIVE HUMIDITY IN PERCENT
  WIND   - DIRECTION AND SPEED IN MPH
  PRES   - MEAN SEA LEVEL PRESSURE IN INCHES OF HG
  WCI    - WIND CHILL INDEX
  VSB    - VISIBILITY IN MILES
  HX     - HEAT INDEX
  TC     - TEMPERATURE IN CELSIUS
  VRB    - VARIABLE WIND DIRECTION
  N/A    - NOT AVAILABLE



USA.gov is the U.S. government's official web portal to all federal, state and local government web resources and services.